Fitchburg, MA

11:59 AM EST on January 18, 2018 (GMT -0500)
Fitchburg Municipal

Weather History for KFIT - May, 2013

Change the Weather History Date:

Friday, May 10, 2013

  Actual Average (KORH) Record (KORH)
Temperature  
Mean Temperature 66 °F -  
Max Temperature 81 °F 63 °F 90 °F (1979)
Min Temperature 51 °F 44 °F 30 °F (1958)
Growing Degree Days 16 (Base 50)    
Moisture  
Dew Point 53 °F    
Average Humidity 77    
Maximum Humidity 100    
Minimum Humidity 35    
Precipitation  
Precipitation 0.01 in - - ()
Sea Level Pressure  
Sea Level Pressure 29.92 in    
Wind  
Wind Speed 1 mph (SW)    
Max Wind Speed 8 mph    
Max Gust Speed -    
Visibility 6 miles    
Events Fog    
Averages and records for this station are not official NWS values.
T = Trace of Precipitation, MM = Missing Value Source: NWS Daily Summary

Daily Weather History Graph

Daily Weather History Graph

Search for Another Location

Airport or City:

Trip Planner

Search our weather history database for the weather conditions in past years. The results will help you decide how hot, cold, wet, or windy it might be!

Date:

Astronomy

May. 10, 2013 Rise Set
Actual Time 5:30 AM EDT 7:57 PM EDT
Civil Twilight 4:58 AM EDT 8:29 PM EDT
Nautical Twilight 4:19 AM EDT 9:08 PM EDT
Astronomical Twilight 3:34 AM EDT 9:53 PM EDT
Moon 5:52 AM EDT (5/10) 8:44 PM EDT (5/10)
Length of Visible Light 15h 30m
Length of Day
14h 26m
New Moon, 0% of the Moon is Illuminated
May 10
New Moon
May 18
First Quarter
May 25
Full
May 31
Last Quarter
Jun 8
New

Hourly Weather History & Observations

Time (EDT) Temp. Dew Point Humidity Pressure Visibility Wind Dir Wind Speed Gust Speed Precip Events Conditions
12:36 AM 57.2 °F 55.4 °F 94% 29.92 in 1.5 mi Calm Calm - N/A   Mostly Cloudy
12:55 AM 57.2 °F 55.4 °F 94% 29.91 in 2.0 mi Calm Calm - N/A   Scattered Clouds
1:02 AM 57.2 °F 55.4 °F 94% 29.91 in 8.0 mi Calm Calm - N/A   Scattered Clouds
1:26 AM 55.4 °F 53.6 °F 94% 29.91 in 1.8 mi Calm Calm - N/A   Partly Cloudy
1:30 AM 55.4 °F 53.6 °F 94% 29.91 in 0.8 mi Calm Calm - N/A   Mist
1:39 AM 55.4 °F 53.6 °F 94% 29.91 in 1.2 mi Calm Calm - N/A   Scattered Clouds
1:41 AM 55.4 °F 53.6 °F 94% 29.91 in 3.0 mi Calm Calm - N/A   Partly Cloudy
1:52 AM 55.0 °F 54.0 °F 96% 29.92 in 9.0 mi Calm Calm - N/A   Partly Cloudy
2:12 AM 53.6 °F 53.6 °F 100% 29.92 in 1.8 mi Calm Calm - N/A   Partly Cloudy
2:24 AM 53.6 °F 53.6 °F 100% 29.92 in 3.0 mi Calm Calm - N/A   Partly Cloudy
2:52 AM 53.1 °F 52.0 °F 96% 29.91 in 1.2 mi Calm Calm - 0.01 in   Partly Cloudy
2:59 AM 51.8 °F 51.8 °F 100% 29.91 in 0.5 mi Calm Calm - N/A Fog Fog
3:23 AM 51.8 °F 51.8 °F 100% 29.92 in 1.2 mi Calm Calm - N/A   Mostly Cloudy
3:38 AM 51.8 °F 50.0 °F 94% 29.92 in 3.0 mi Calm Calm - N/A   Mostly Cloudy
3:49 AM 51.8 °F 51.8 °F 100% 29.92 in 4.0 mi Calm Calm - N/A   Scattered Clouds
3:55 AM 51.8 °F 51.8 °F 100% 29.92 in 1.8 mi Calm Calm - N/A   Scattered Clouds
3:59 AM 51.8 °F 51.8 °F 100% 29.92 in 0.8 mi Calm Calm - N/A   Mist
4:07 AM 51.8 °F 51.8 °F 100% 29.92 in 1.5 mi Calm Calm - N/A   Partly Cloudy
4:10 AM 51.8 °F 51.8 °F 100% 29.92 in 3.0 mi Calm Calm - N/A   Partly Cloudy
4:52 AM 52.0 °F 51.1 °F 97% 29.93 in 10.0 mi Calm Calm - N/A   Clear
5:52 AM 52.0 °F 51.1 °F 97% 29.94 in 10.0 mi WNW 3.5 mph - N/A   Clear
6:52 AM 55.9 °F 53.1 °F 90% 29.95 in 10.0 mi Calm Calm - N/A   Clear
7:52 AM 60.1 °F 54.0 °F 80% 29.96 in 10.0 mi NW 6.9 mph - N/A   Clear
8:52 AM 64.9 °F 55.0 °F 70% 29.96 in 10.0 mi West 4.6 mph - N/A   Clear
9:52 AM 70.0 °F 55.9 °F 61% 29.96 in 10.0 mi WNW 3.5 mph - N/A   Clear
10:52 AM 73.0 °F 57.0 °F 57% 29.96 in 10.0 mi South 4.6 mph - N/A   Clear
11:52 AM 75.0 °F 54.0 °F 48% 29.96 in 10.0 mi Calm Calm - N/A   Scattered Clouds
12:52 PM 75.9 °F 53.1 °F 45% 29.94 in 10.0 mi Variable 4.6 mph - N/A   Partly Cloudy
1:52 PM 77.0 °F 50.0 °F 39% 29.93 in 10.0 mi Calm Calm - N/A   Clear
2:52 PM 80.1 °F 50.0 °F 35% 29.92 in 10.0 mi WSW 8.1 mph - N/A   Mostly Cloudy
3:52 PM 79.0 °F 48.9 °F 35% 29.92 in 10.0 mi WSW 8.1 mph - N/A   Partly Cloudy
4:52 PM 79.0 °F 51.1 °F 38% 29.91 in 10.0 mi SSW 8.1 mph - N/A   Scattered Clouds
5:52 PM 78.1 °F 48.9 °F 36% 29.90 in 10.0 mi SW 8.1 mph - N/A   Clear
6:52 PM 77.0 °F 50.0 °F 39% 29.91 in 10.0 mi SW 4.6 mph - N/A   Clear
7:52 PM 73.0 °F 53.1 °F 49% 29.91 in 10.0 mi Calm Calm - N/A   Clear
8:52 PM 71.1 °F 55.0 °F 57% 29.92 in 10.0 mi SSW 3.5 mph - N/A   Partly Cloudy
9:52 PM 70.0 °F 55.0 °F 59% 29.92 in 10.0 mi SE 4.6 mph - N/A   Partly Cloudy
10:52 PM 69.1 °F 54.0 °F 58% 29.91 in 10.0 mi South 5.8 mph - N/A   Partly Cloudy
11:52 PM 68.0 °F 54.0 °F 61% 29.91 in 10.0 mi SE 3.5 mph - N/A   Partly Cloudy